Location: Quedlinburg
(51.7921°N, 11.1414°E)
Time: 18:30:52
(UTC+02:00)

NOAA 18 - Pass Details

Date: 17 March 2026
Orbit: 837 x 857 km, 98.8° (Epoch: 15 April)

Event Time Altitude Azimuth Distance (km) Brightness Sun altitude
Exits shadow 21:00:54 26° 54° (NE) 1,589 6.4 -24.0°
Drops below altitude 10° 21:05:08 10° 3° (N) 2,465 8.0 -24.5°
Sets 21:07:50 0° 351° (N) 3,405 9.0 -24.9°
